Location: Alulod
(14.2076°N, 120.8898°E)
Time: 02:19:21
(UTC+00:00)

GPS 2-17 Rocket1 - Pass Details

Date: 13 December 2025
Orbit: 546 x 616 km, 20.3° (Epoch: 15 January)

Event Time Altitude Azimuth Distance (km) Brightness Sun altitude
Rises 21:34:22 0° 240° (WSW) 2,863 6.1 -9.3°
Reaches altitude 10° 21:36:47 10° 234° (SW) 1,959 5.3 -8.7°
Maximum altitude 21:41:12 46° 161° (SSE) 818 4.1 -7.7°
Drops below altitude 10° 21:45:35 10° 87° (E) 1,946 6.8 -6.7°
Sets 21:47:58 0° 81° (E) 2,841 7.6 -6.2°
